Location: Nitra
(0.0000°N, 18.0833°E)
Time: 02:05:37
(UTC+01:00)

NOAA 15 - Pass Details

Date: 30 November 2023
Orbit: 797 x 810 km, 98.6° (Epoch: 03 March)

Event Time Altitude Azimuth Distance (km) Brightness Sun altitude
Rises 19:01:50 0° 166° (SSE) 3,325 7.9 -19.8°
Reaches altitude 10° 19:04:10 10° 164° (SSE) 2,393 7.1 -20.3°
Maximum altitude 19:09:28 80° 78° (ENE) 823 4.5 -21.5°
Drops below altitude 10° 19:14:45 10° 351° (N) 2,384 6.9 -22.8°
Sets 19:17:05 0° 350° (N) 3,312 7.7 -23.3°
